星链-1523 (STARLINK-1523 )

导读

STARLINK-1523是美国太空探索技术公司(SpaceX)发射的星链(Starlink)卫星,于北京时间2020年8月7日发射入轨,属于星链低轨互联网星座组网卫星,旨在为全球提供高速宽带互联网服务,补充星链星座的空间部署,服务全球各类网络接入需求。

基本信息
目录编号:
46028
目录名称:
STARLINK-1523
国际标识:
2020-055B
轨道中心:
EARTH
卫星名称:
星链-1523
卫星全名:
星链-1523 (STARLINK-1523 )
卫星状态:
在轨 (已飞行2229 天)
发射日期:
2020-08-07 UTC
国别 :
美国 (US)
星等 :
--
该卫星已列入 空间交会检测服务 Space Conjunction Data Service (SCDS) ,当前飞行风险评估等级: 无高风险
轨道信息
数据来源 国际轨道数据
星历时间: 2026-09-13T19:02:25+0800
14小时前
查看轨道信息
半长轴: 6831.8km
偏心率: 0.0000819
轨道倾角: 53.159°
近地点辐角 332.186°
升交点赤经 331.996°
平近点角 27.910°
近地点: 453.103km
远地点: 454.223km
周期: 93.662分钟
每日圈数: 15.374468
详细信息
固有亮度:
5
最大亮度:
2.5
卫星平台:
Starlink V1.0
覆盖范围:
全球
运营商:
太空探索技术公司
运营商所在国:
美国
制造商(研发单位):
太空探索技术公司
制造商所在国:
美国
使用方式:
暂无
卫星简介
星链(Starlink)计划是由太空探索技术公司(SpaceX)提出的一个巨型低轨卫星互联网星座项目,计划在2019年至2024年间在太空搭建由约1.2万颗卫星组成的“星链”网络,其中1584颗将部署在地球上空550千米处的近地轨道,并从2020年开始工作。该卫星仍在工作。
2D轨道图
3D轨道图
轨道高度分析图
轨道倾角分析图
轨道综合分析图
查看轨道综合分析图
与全量物体交会距离演化趋势
与全量物体交会风险概率演化趋势